Location: Unspecified
(0.0000°N, 0.0000°E)
Time: 14:51:39
(UTC+00:00)

Vanguard 1 Rocket - Pass Details

Date: 08 December 2017
Orbit: 652 x 4225 km, 34.3° (Epoch: 21 July)

Event Time Altitude Azimuth Distance (km) Brightness Sun altitude
Rises 16:21:34 0° 265° (W) 3,733 11.8 20.8°
Reaches altitude 10° 16:24:04 10° 277° (W) 3,074 11.3 20.2°
Maximum altitude 16:30:50 31° 338° (NNW) 2,616 9.9 18.7°
Drops below altitude 10° 16:42:31 10° 34° (NE) 5,356 10.9 16.0°
Sets 16:48:47 0° 43° (NE) 7,022 11.4 14.6°
